Погода в Голливуде

США     26°02′29″N   80°11′33″W
темп.,
°C
ветер,
м/с
пор.,
м/с
влажн.,
%
обл.,
%
осадки,
мм/ч
давл.,
гПа
погр.,
м
26 июля, пн
пн2623:00+29ююв55667 0.8 1014673
02:00+29ююв456955 0.8 1013870
05:00+28ююв357196 0.0 1013752
08:00+29ююв33685 0.0 1014832
11:00+32ююв335399 0.0 10151500
14:00+33юв544996 0.1 10151698
17:00+32юв6552100 0.0 10141318
20:00+30юв6760100 0.0 1014878
27 июля, вт
вт2723:00+29юв456573 0.0 1016942
02:00+29юв446714 0.0 1015909
05:00+29юв336825 0.0 1015871
08:00+29ю33645 0.1 1016945
11:00+32ююв334925 0.0 10171484
14:00+34юв5442100 0.0 10162002
17:00+34юв654977 0.1 10151451
20:00+31ююв445876 4.2 1016742
28 июля, ср
ср2823:00+30ююв446111 7.1 1017924
02:00+29ю346599 7.1 1017734
05:00+29ююз33693 0.0 1016644
08:00+29зюз22695 0.0 1018608
11:00+32зюз11505 0.0 10181312
14:00+35вюв3241100 0.0 10172110
17:00+33юв655114 0.4 10151035
20:00+31ююв445548 1.1 1016975
29 июля, чт
чт2923:00+31ю335827 2.4 1017948
02:00+30ю33615 2.4 1016776
05:00+29ю22645 0.0 1016760
08:00+29ю12656 0.0 1017827
11:00+32ююв2251100 0.0 10181387
14:00+35вюв544466 0.0 10172072
17:00+33юв6551100 0.0 10161068
20:00+31ююв555396 0.1 1016995
30 июля, пт
пт3023:00+30ю336086 0.8 1019858
02:00+29ююв2364100 1.2 1018728
05:00+29юв456799 0.0 1016915
08:00+29ю446716 0.1 1018863
11:00+32юв325379 0.2 10191617
14:00+34вюв644484 0.2 10181687
17:00+33юв6445100 0.0 10171285
20:00+31юв5454100 0.0 10181083